QBEE50-LTU-OC (42708 NORAD) Tracking and Keplerian Element Data

This shows tracking and keplerian element data for the satellite.

Feedback or suggestion? Click here.




ElementValue
Catalog42708
NameQBEE50-LTU-OC
Epoch Orbit8630
Epoch Day323.11502438
Epoch Year2018
RAAN277.4445
Inclination51.6278
Eccentricity0.000404
Argument of Perigee96.3526
Mean Anonmoly263.7937
Mean Motion15.8339944
Decay Rate0.0007701
L11 42708U 98067LR 18323.11502438 .00077010 00000-0 34617-3 0 9991
L22 42708 51.6278 277.4445 0004040 96.3526 263.7937 15.83399440 86304

Live tracking and technical data element details for QBEE50-LTU-OC (NORAD 42708). QBEE50-LTU-OC can be tracked NOW for your location showing map with azimuth and elevation plus other details from your city location.

Track the satellite on the map from your city or location and see movement details for azimuth, elevation, latitude, longitude, range, height, and movement on the map or in text.







IsCatalogInMostPopularTable: catalog: 42708, numindb: 170
Update: records affected: 1



GetName: 42708 QBEE50-LTU-OC

Hit Count: updated at: Mon, 19 Nov 2018 11:40:49 GMT